This is the latest recevied weather packets stored in our database for station/object S55YIZ-7. If no packets are shown the sender has not sent any weather packets the latest 10 day(s).
| Time | Temp. | Humidity | Pressure | Rain* | Wind** | Luminosity | Snow |
|---|---|---|---|---|---|---|---|
| 1777586076 | 11.67° C | 32% | - | - | - | - | - |
| 1777586059 | 11.67° C | 32% | 1027 hPa | - | - | - | - |
| 1777585159 | 11.67° C | 33% | 1027 hPa | - | - | - | - |
| 1777584258 | 11.67° C | 34% | 1026.8 hPa | - | - | - | - |
| 1777583358 | 11.67° C | 35% | 1026.8 hPa | - | - | - | - |
| 1777582458 | 11.67° C | 35% | 1026.7 hPa | - | - | - | - |
| 1777581558 | 12.22° C | 33% | 1026.4 hPa | - | - | - | - |
| 1777580658 | 12.22° C | 34% | 1026.4 hPa | - | - | - | - |
| 1777579758 | 12.78° C | 32% | 1026.1 hPa | - | - | - | - |
| 1777578858 | 12.78° C | 30% | 1025.9 hPa | - | - | - | - |
| 1777577958 | 12.78° C | 30% | 1025.8 hPa | - | - | - | - |
| 1777577250 | 12.78° C | 31% | 1025.7 hPa | - | - | - | - |
| 1777577058 | 12.78° C | 31% | 1025.7 hPa | - | - | - | - |
| 1777576158 | 13.33° C | 31% | 1025.3 hPa | - | - | - | - |
| 1777575257 | 13.33° C | 30% | 1025.2 hPa | - | - | - | - |
| 1777574357 | 13.89° C | 30% | 1024.9 hPa | - | - | - | - |
| 1777573457 | 13.89° C | 30% | 1024.7 hPa | - | - | - | - |
| 1777572557 | 13.89° C | 29% | 1024.7 hPa | - | - | - | - |
| 1777571657 | 14.44° C | 29% | 1024.5 hPa | - | - | - | - |
| 1777570756 | 15° C | 28% | 1024.4 hPa | - | - | - | - |
| 1777569872 | 15.56° C | 26% | 1024.4 hPa | - | - | - | - |
| 1777568971 | 16.11° C | 25% | 1024 hPa | - | - | - | - |
| 1777568070 | 16.67° C | 24% | 1024 hPa | - | - | - | - |
| 1777567170 | 16.67° C | 25% | 1023.8 hPa | - | - | - | - |
| 1777566269 | 17.22° C | 25% | 1023.8 hPa | - | - | - | - |
* Rain since midnight (hover to see other rain measurements)
** Current wind speed in m/s (hover to see current wind gust speed)